Total_Precipitation_Accumulation
0.00 0.00 0.00 0.00 0.00 0.00 0.00 0.00 0.00 0.00 0.00 0.00 0.00 0.00 0.01 0.02 0.03 0.05 0.12 0.34 0.58 0.64 0.75 0.70 0.50 0.43 0.44 0.56 0.61 0.70 0.86 0.95 1.06 1.03 0.91 0.91 0.88 0.91 0.91 0.90 0.89 0.92 0.93 1.04
0.00 0.00 0.00 0.00 0.00 0.00 0.00 0.00 0.00 0.00 0.00 0.00 0.00 0.00 0.01 0.02 0.03 0.04 0.06 0.12 0.26 0.38 0.44 0.47 0.42 0.44 0.63 0.81 0.84 0.89 0.92 0.96 1.09 1.26 1.33 1.38 1.44 1.27 1.13 1.09 1.01 0.98 1.06 1.13
0.00 0.00 0.00 0.00 0.00 0.00 0.00 0.00 0.00 0.00 0.00 0.00 0.00 0.00 0.00 0.01 0.04 0.08 0.13 0.20 0.28 0.38 0.47 0.52 0.52 0.52 0.61 0.69 0.77 0.90 0.98 1.04 1.16 1.34 1.48 1.52 1.55 1.38 1.27 1.18 1.11 1.02 1.05 1.04
0.00 0.00 0.00 0.00 0.00 0.00 0.00 0.00 0.00 0.00 0.00 0.00 0.00 0.00 0.00 0.01 0.04 0.10 0.17 0.27 0.36 0.44 0.49 0.53 0.55 0.54 0.56 0.60 0.71 0.88 1.01 1.06 1.16 1.29 1.38 1.37 1.37 1.25 1.25 1.27 1.16 1.07 1.01 0.98
0.00 0.00 0.00 0.00 0.00 0.00 0.00 0.00 0.00 0.00 0.00 0.00 0.00 0.00 0.00 0.01 0.03 0.09 0.19 0.30 0.42 0.49 0.47 0.45 0.49 0.50 0.51 0.58 0.70 0.80 0.89 0.94 0.98 1.01 1.06 1.09 1.08 1.09 1.11 1.05 0.97 0.90 0.86 0.86
0.00 0.00 0.00 0.00 0.00 0.00 0.00 0.00 0.00 0.00 0.00 0.00 0.01 0.01 0.01 0.02 0.03 0.08 0.23 0.37 0.51 0.58 0.58 0.57 0.57 0.57 0.57 0.66 0.76 0.81 0.82 0.81 0.79 0.77 0.80 0.84 0.87 0.90 0.90 0.88 0.88 0.84 0.81 0.74
0.00 0.01 0.02 0.01 0.01 0.00 0.00 0.01 0.06 0.04 0.01 0.01 0.02 0.03 0.04 0.06 0.04 0.09 0.27 0.48 0.61 0.61 0.56 0.53 0.54 0.55 0.58 0.58 0.58 0.61 0.59 0.55 0.51 0.49 0.51 0.54 0.57 0.61 0.66 0.69 0.68 0.64 0.58 0.55
0.00 0.02 0.04 0.03 0.02 0.02 0.02 0.05 0.20 0.18 0.05 0.02 0.02 0.02 0.09 0.11 0.14 0.26 0.41 0.51 0.53 0.49 0.46 0.45 0.41 0.40 0.41 0.41 0.40 0.43 0.45 0.47 0.47 0.43 0.41 0.36 0.33 0.34 0.36 0.40 0.46 0.45 0.43 0.42
0.02 0.01 0.02 0.01 0.02 0.02 0.05 0.09 0.11 0.24 0.18 0.12 0.02 0.03 0.10 0.16 0.31 0.53 0.69 0.69 0.61 0.49 0.41 0.37 0.33 0.29 0.27 0.29 0.32 0.38 0.41 0.44 0.48 0.47 0.40 0.34 0.28 0.25 0.26 0.30 0.37 0.39 0.41 0.38
0.02 0.00 0.00 0.00 0.01 0.02 0.04 0.06 0.08 0.20 0.22 0.19 0.06 0.04 0.14 0.36 0.50 0.62 0.73 0.66 0.51 0.40 0.31 0.27 0.23 0.22 0.21 0.23 0.27 0.34 0.38 0.37 0.38 0.39 0.37 0.30 0.25 0.24 0.25 0.26 0.29 0.30 0.32 0.34
0.00 0.00 0.00 0.00 0.01 0.03 0.06 0.10 0.16 0.25 0.23 0.26 0.22 0.18 0.23 0.37 0.52 0.61 0.62 0.51 0.36 0.27 0.20 0.19 0.19 0.20 0.20 0.20 0.24 0.31 0.37 0.40 0.41 0.40 0.39 0.32 0.26 0.23 0.22 0.21 0.22 0.26 0.29 0.33
0.00 0.00 0.00 0.00 0.00 0.01 0.04 0.08 0.17 0.27 0.24 0.25 0.26 0.20 0.14 0.17 0.25 0.32 0.34 0.31 0.26 0.21 0.18 0.21 0.23 0.23 0.21 0.22 0.27 0.33 0.38 0.43 0.47 0.49 0.50 0.45 0.39 0.34 0.30 0.26 0.23 0.22 0.24 0.28
0.00 0.00 0.01 0.01 0.02 0.03 0.03 0.04 0.07 0.11 0.13 0.13 0.15 0.12 0.11 0.17 0.25 0.36 0.46 0.48 0.41 0.32 0.22 0.19 0.21 0.23 0.24 0.28 0.33 0.42 0.48 0.50 0.52 0.57 0.65 0.64 0.50 0.45 0.43 0.37 0.30 0.26 0.23 0.21
0.00 0.00 0.01 0.01 0.01 0.01 0.01 0.01 0.03 0.09 0.16 0.14 0.09 0.05 0.11 0.19 0.29 0.39 0.43 0.39 0.31 0.25 0.20 0.17 0.20 0.23 0.26 0.29 0.29 0.32 0.35 0.38 0.44 0.45 0.55 0.65 0.60 0.48 0.36 0.28 0.28 0.28 0.25 0.23
0.00 0.00 0.00 0.00 0.00 0.00 0.00 0.00 0.00 0.03 0.10 0.19 0.15 0.10 0.12 0.17 0.19 0.24 0.24 0.21 0.17 0.16 0.14 0.15 0.18 0.21 0.25 0.24 0.21 0.19 0.17 0.17 0.23 0.27 0.34 0.43 0.38 0.31 0.28 0.24 0.18 0.15 0.18 0.21
0.00 0.00 0.00 0.00 0.00 0.00 0.00 0.00 0.01 0.02 0.03 0.08 0.11 0.14 0.17 0.18 0.19 0.20 0.19 0.17 0.16 0.16 0.13 0.12 0.14 0.17 0.19 0.15 0.11 0.08 0.08 0.11 0.17 0.23 0.27 0.34 0.33 0.26 0.20 0.15 0.10 0.08 0.12 0.17
0.00 0.00 0.00 0.00 0.00 0.01 0.01 0.01 0.01 0.01 0.02 0.04 0.12 0.20 0.19 0.20 0.19 0.18 0.16 0.14 0.12 0.10 0.08 0.07 0.06 0.06 0.05 0.05 0.04 0.05 0.05 0.06 0.14 0.23 0.30 0.35 0.39 0.38 0.26 0.13 0.09 0.09 0.13 0.18
0.01 0.01 0.00 0.00 0.01 0.04 0.03 0.00 0.01 0.02 0.02 0.03 0.06 0.09 0.10 0.09 0.07 0.06 0.06 0.05 0.03 0.03 0.03 0.03 0.02 0.02 0.02 0.02 0.04 0.07 0.06 0.07 0.12 0.21 0.28 0.30 0.33 0.34 0.28 0.20 0.16 0.16 0.19 0.24
0.00 0.01 0.01 0.01 0.01 0.01 0.01 0.01 0.02 0.04 0.04 0.03 0.03 0.04 0.04 0.04 0.04 0.06 0.03 0.02 0.01 0.01 0.01 0.01 0.01 0.01 0.02 0.02 0.05 0.10 0.11 0.14 0.18 0.26 0.34 0.33 0.33 0.31 0.24 0.20 0.20 0.20 0.22 0.25
0.00 0.00 0.01 0.01 0.01 0.03 0.02 0.04 0.06 0.04 0.11 0.07 0.05 0.04 0.03 0.02 0.08 0.10 0.04 0.01 0.01 0.01 0.01 0.02 0.02 0.02 0.04 0.06 0.09 0.14 0.19 0.23 0.29 0.37 0.42 0.39 0.39 0.37 0.32 0.31 0.29 0.26 0.26 0.25
0.00 0.00 0.01 0.01 0.03 0.03 0.02 0.04 0.04 0.08 0.15 0.04 0.02 0.01 0.01 0.02 0.05 0.05 0.02 0.01 0.01 0.01 0.02 0.03 0.04 0.04 0.06 0.08 0.11 0.18 0.23 0.25 0.28 0.30 0.36 0.40 0.43 0.45 0.49 0.49 0.42 0.36 0.32 0.30
0.00 0.01 0.02 0.03 0.06 0.08 0.02 0.01 0.01 0.04 0.02 0.01 0.01 0.01 0.02 0.02 0.01 0.01 0.01 0.01 0.01 0.02 0.03 0.04 0.06 0.05 0.06 0.09 0.13 0.18 0.20 0.22 0.24 0.27 0.34 0.40 0.43 0.43 0.52 0.65 0.61 0.58 0.51 0.41
0.00 0.01 0.02 0.02 0.04 0.02 0.00 0.00 0.01 0.01 0.01 0.02 0.02 0.01 0.02 0.02 0.02 0.02 0.02 0.02 0.02 0.02 0.03 0.05 0.08 0.10 0.12 0.15 0.22 0.29 0.26 0.26 0.29 0.33 0.39 0.42 0.42 0.45 0.54 0.61 0.64 0.64 0.58 0.49
0.00 0.01 0.01 0.03 0.01 0.00 0.01 0.01 0.01 0.01 0.01 0.01 0.01 0.01 0.02 0.03 0.03 0.03 0.03 0.03 0.04 0.04 0.06 0.09 0.13 0.19 0.26 0.29 0.33 0.38 0.33 0.32 0.33 0.35 0.39 0.42 0.44 0.46 0.50 0.59 0.61 0.59 0.54 0.52
0.00 0.00 0.01 0.03 0.02 0.01 0.01 0.02 0.01 0.00 0.01 0.01 0.01 0.02 0.02 0.03 0.04 0.04 0.04 0.05 0.05 0.05 0.07 0.12 0.19 0.26 0.32 0.39 0.44 0.46 0.45 0.45 0.44 0.41 0.40 0.42 0.44 0.46 0.53 0.60 0.66 0.65 0.59 0.52
0.01 0.02 0.03 0.04 0.04 0.05 0.05 0.03 0.01 0.01 0.01 0.01 0.02 0.02 0.03 0.04 0.05 0.04 0.05 0.05 0.05 0.06 0.07 0.11 0.16 0.23 0.31 0.39 0.46 0.48 0.53 0.58 0.61 0.61 0.54 0.53 0.54 0.56 0.61 0.63 0.57 0.51 0.51 0.43